• în Republica Moldova
  • Lista ţărilor
  • Pe 7 zile
  • Temperatura apei
  • Hartă satelitară
  • Meteo pe hartă
  • Widget-uri
  • user-avatar
    Intrare

    Meteo pe oră la Shkoder

    Astăzi, 24 Noiembrie, Vineri

    Timp Temperatura Precipitaţii Vânt Presiune Umiditate
    00:00 +9°C° 0 mm 1 m/s 744 mmHg 74%
    01:00 +9°C° 0 mm 1 m/s 744 mmHg 73%
    02:00 +8°C° 0 mm 1 m/s 744 mmHg 73%
    03:00 +8°C° 0 mm 1 m/s 744 mmHg 74%
    04:00 +8°C° 0 mm 1 m/s 744 mmHg 74%
    05:00 +8°C° 0 mm 1 m/s 744 mmHg 74%
    06:00 +8°C° 0 mm 1 m/s 744 mmHg 75%
    07:00 +8°C° 0 mm 1 m/s 744 mmHg 75%
    08:00 +10°C° 0 mm 1 m/s 744 mmHg 70%
    09:00 +12°C° 0 mm 1 m/s 744 mmHg 66%
    10:00 +13°C° 0 mm 1 m/s 744 mmHg 61%
    11:00 +14°C° 0 mm 1 m/s 743 mmHg 61%
    12:00 +14°C° 0 mm 1 m/s 743 mmHg 61%
    13:00 +15°C° 0 mm 1 m/s 743 mmHg 62%
    14:00 +14°C° 0 mm 1 m/s 743 mmHg 68%
    15:00 +12°C° 0 mm 1 m/s 743 mmHg 75%
    16:00 +11°C° 0 mm 1 m/s 743 mmHg 82%
    17:00 +11°C° 0 mm 1 m/s 743 mmHg 84%
    18:00 +10°C° 0 mm 1 m/s 743 mmHg 86%
    19:00 +10°C° 0 mm 1 m/s 743 mmHg 88%
    20:00 +9°C° 0 mm 1 m/s 744 mmHg 87%
    21:00 +9°C° 0 mm 1 m/s 744 mmHg 87%
    22:00 +9°C° 0 mm 1 m/s 744 mmHg 86%
    23:00 +9°C° 0 mm 1 m/s 744 mmHg 86%

    Mâine, 25 Noiembrie, Sâmbătă

    Timp Temperatura Precipitaţii Vânt Presiune Umiditate
    00:00 +9°C° 0 mm 1 m/s 744 mmHg 85%
    01:00 +9°C° 0 mm 1 m/s 744 mmHg 85%
    02:00 +9°C° 0 mm 1 m/s 743 mmHg 84%
    03:00 +8°C° 0 mm 1 m/s 743 mmHg 84%
    04:00 +8°C° 0 mm 1 m/s 743 mmHg 84%
    05:00 +8°C° 0 mm 1 m/s 743 mmHg 84%
    06:00 +8°C° 0 mm 1 m/s 743 mmHg 83%
    07:00 +8°C° 0 mm 1 m/s 743 mmHg 83%
    08:00 +10°C° 0 mm 1 m/s 743 mmHg 78%
    09:00 +11°C° 0 mm 1 m/s 743 mmHg 74%
    10:00 +13°C° 0 mm 2 m/s 742 mmHg 69%
    11:00 +13°C° 0 mm 2 m/s 742 mmHg 70%
    12:00 +14°C° 0 mm 2 m/s 741 mmHg 71%
    13:00 +14°C° 0 mm 2 m/s 741 mmHg 72%
    14:00 +13°C° 0 mm 2 m/s 741 mmHg 77%
    15:00 +12°C° 0 mm 2 m/s 741 mmHg 82%
    16:00 +12°C° 0 mm 1 m/s 740 mmHg 87%
    17:00 +10°C° 0 mm 2 m/s 741 mmHg 88%
    18:00 +10°C° 0 mm 2 m/s 741 mmHg 90%
    19:00 +9°C° 0 mm 2 m/s 741 mmHg 91%
    20:00 +9°C° 0 mm 2 m/s 741 mmHg 91%
    21:00 +9°C° 0 mm 2 m/s 741 mmHg 91%
    22:00 +9°C° 0 mm 2 m/s 741 mmHg 91%
    23:00 +9°C° 0,2 mm 2 m/s 741 mmHg 90%

    Poimâine, 26 Noiembrie, Duminică

    Timp Temperatura Precipitaţii Vânt Presiune Umiditate
    00:00 +9°C° 0,2 mm 2 m/s 741 mmHg 89%
    01:00 +9°C° 0,2 mm 2 m/s 741 mmHg 88%
    02:00 +9°C° 0,2 mm 2 m/s 740 mmHg 87%
    03:00 +9°C° 0,2 mm 2 m/s 740 mmHg 87%
    04:00 +10°C° 0,2 mm 3 m/s 740 mmHg 87%
    05:00 +10°C° 0,4 mm 3 m/s 740 mmHg 87%
    06:00 +10°C° 0,4 mm 3 m/s 740 mmHg 87%
    07:00 +10°C° 0,4 mm 3 m/s 739 mmHg 87%
    08:00 +10°C° 0,7 mm 3 m/s 739 mmHg 86%
    09:00 +10°C° 0,7 mm 3 m/s 739 mmHg 85%
    10:00 +11°C° 0,7 mm 3 m/s 739 mmHg 84%
    11:00 +11°C° 0,7 mm 3 m/s 738 mmHg 84%
    12:00 +12°C° 0,7 mm 4 m/s 737 mmHg 84%
    13:00 +12°C° 0,7 mm 4 m/s 737 mmHg 84%
    14:00 +12°C° 1,7 mm 4 m/s 737 mmHg 86%
    15:00 +12°C° 1,7 mm 4 m/s 737 mmHg 88%
    16:00 +12°C° 1,7 mm 4 m/s 737 mmHg 90%
    17:00 +12°C° 2 mm 3 m/s 737 mmHg 91%
    18:00 +12°C° 2 mm 3 m/s 737 mmHg 91%
    19:00 +12°C° 2 mm 2 m/s 737 mmHg 91%
    20:00 +12°C° 1,6 mm 2 m/s 737 mmHg 92%
    21:00 +12°C° 1,6 mm 2 m/s 737 mmHg 93%
    22:00 +12°C° 1,6 mm 2 m/s 737 mmHg 94%
    23:00 +10°C° 0,8 mm 2 m/s 737 mmHg 93%

    27 Noiembrie, Luni

    Timp Temperatura Precipitaţii Vânt Presiune Umiditate
    00:00 +10°C° 0,8 mm 2 m/s 737 mmHg 93%
    01:00 +10°C° 0,8 mm 2 m/s 737 mmHg 92%
    02:00 +9°C° 0,7 mm 2 m/s 737 mmHg 90%
    03:00 +9°C° 0,7 mm 3 m/s 737 mmHg 88%
    04:00 +8°C° 0,7 mm 3 m/s 737 mmHg 87%
    05:00 +7°C° 0,4 mm 4 m/s 737 mmHg 85%
    06:00 +7°C° 0,4 mm 4 m/s 738 mmHg 83%
    07:00 +6°C° 0,4 mm 4 m/s 738 mmHg 81%
    08:00 +6°C° 0,2 mm 4 m/s 739 mmHg 78%
    09:00 +7°C° 0,2 mm 4 m/s 739 mmHg 75%
    10:00 +7°C° 0,2 mm 5 m/s 739 mmHg 73%
    11:00 +7°C° 0,1 mm 5 m/s 739 mmHg 71%
    12:00 +7°C° 0,1 mm 4 m/s 739 mmHg 70%
    13:00 +7°C° 0,1 mm 4 m/s 739 mmHg 68%
    14:00 +7°C° 0 mm 4 m/s 740 mmHg 70%
    15:00 +6°C° 0 mm 4 m/s 740 mmHg 72%
    16:00 +5°C° 0 mm 4 m/s 740 mmHg 73%
    17:00 +4°C° 0 mm 4 m/s 740 mmHg 74%
    18:00 +4°C° 0 mm 4 m/s 740 mmHg 75%
    19:00 +3°C° 0 mm 4 m/s 741 mmHg 76%
    20:00 +1°C° 0 mm 4 m/s 741 mmHg 76%
    21:00 +1°C° 0 mm 4 m/s 741 mmHg 75%
    22:00 +1°C° 0 mm 4 m/s 741 mmHg 75%
    23:00 0°C° 0 mm 4 m/s 741 mmHg 74%

    28 Noiembrie, Marţi

    Timp Temperatura Precipitaţii Vânt Presiune Umiditate
    00:00 0°C° 0 mm 4 m/s 741 mmHg 73%
    01:00 0°C° 0 mm 4 m/s 741 mmHg 72%
    02:00 +1°C° 0 mm 3 m/s 741 mmHg 72%
    03:00 +1°C° 0 mm 3 m/s 741 mmHg 71%
    04:00 +1°C° 0 mm 3 m/s 741 mmHg 70%
    05:00 +1°C° 0 mm 3 m/s 741 mmHg 69%
    06:00 0°C° 0 mm 3 m/s 741 mmHg 68%
    07:00 0°C° 0 mm 3 m/s 741 mmHg 68%
    08:00 +2°C° 0 mm 3 m/s 741 mmHg 62%
    09:00 +3°C° 0 mm 3 m/s 741 mmHg 57%
    10:00 +6°C° 0 mm 2 m/s 741 mmHg 52%
    11:00 +7°C° 0 mm 2 m/s 741 mmHg 50%
    12:00 +7°C° 0 mm 2 m/s 740 mmHg 48%
    13:00 +9°C° 0 mm 1 m/s 740 mmHg 46%
    14:00 +8°C° 0 mm 1 m/s 740 mmHg 51%
    15:00 +7°C° 0 mm 1 m/s 740 mmHg 56%
    16:00 +6°C° 0 mm 1 m/s 740 mmHg 61%
    17:00 +5°C° 0 mm 1 m/s 740 mmHg 63%
    18:00 +5°C° 0 mm 1 m/s 741 mmHg 64%
    19:00 +4°C° 0 mm 1 m/s 741 mmHg 66%
    20:00 +4°C° 0 mm 1 m/s 741 mmHg 65%
    21:00 +4°C° 0 mm 1 m/s 741 mmHg 65%
    22:00 +4°C° 0 mm 1 m/s 741 mmHg 64%
    23:00 +4°C° 0 mm 1 m/s 741 mmHg 63%

    29 Noiembrie, Miercuri

    Timp Temperatura Precipitaţii Vânt Presiune Umiditate
    00:00 +4°C° 0 mm 1 m/s 741 mmHg 61%
    01:00 +4°C° 0 mm 1 m/s 741 mmHg 60%
    02:00 +4°C° 0 mm 1 m/s 741 mmHg 59%
    03:00 +4°C° 0 mm 1 m/s 741 mmHg 58%
    04:00 +4°C° 0 mm 1 m/s 741 mmHg 57%
    05:00 +4°C° 0 mm 1 m/s 741 mmHg 56%
    06:00 +4°C° 0 mm 1 m/s 741 mmHg 56%
    07:00 +3°C° 0 mm 2 m/s 741 mmHg 55%
    08:00 +4°C° 0 mm 2 m/s 741 mmHg 54%
    09:00 +6°C° 0 mm 2 m/s 741 mmHg 52%
    10:00 +8°C° 0 mm 2 m/s 741 mmHg 51%
    11:00 +8°C° 0 mm 2 m/s 741 mmHg 52%
    12:00 +9°C° 0 mm 2 m/s 741 mmHg 54%
    13:00 +9°C° 0 mm 2 m/s 740 mmHg 56%
    14:00 +8°C° 0 mm 2 m/s 740 mmHg 62%
    15:00 +7°C° 0 mm 2 m/s 740 mmHg 67%
    16:00 +5°C° 0 mm 2 m/s 741 mmHg 73%
    17:00 +5°C° 0 mm 2 m/s 741 mmHg 73%
    18:00 +5°C° 0 mm 2 m/s 741 mmHg 73%
    19:00 +4°C° 0 mm 2 m/s 741 mmHg 73%
    20:00 +4°C° 0 mm 2 m/s 741 mmHg 73%
    21:00 +3°C° 0 mm 3 m/s 741 mmHg 73%
    22:00 +3°C° 0 mm 3 m/s 741 mmHg 73%
    23:00 +4°C° 0 mm 3 m/s 741 mmHg 73%
    Arată mai mult